EZY57LF EGMC-LTBS

Flight info

Callsign EZY57LF
Flight time N/A
Altitude 23000
Route DET L6 DVR L9 KONAN/N0439F370 UL607 KOK DCT DENOX DCT REMBA DCT LIRSU DCT KRH DCT UTABA/N0441F390 DCT MOMUK DCT GEDSO DCT VEKEN DCT DARZA DCT NAVSU DCT SOLGU DCT RUDAR DCT OSLUD DCT MEDUX UM867 KOGAT DCT DISOR DCT FSK DCT RIKSO UN127 IMR UT489 SONUP
Aircraft A20N/M-SDE2E3FGHIRWXY/LB1

Departure

Time 2026-05-05 11:26
Airport London Southend Airport (EGMC)

Arrival

Time N/A
Airport Dalaman International Airport (LTBS)
Time Latitude Longitude Altitude Speed Heading
2026-05-05 11:08 51.56927 0.70272 53 ft 0 kts 93°
2026-05-05 11:16 51.56929 0.70247 52 ft 3 kts 106°
2026-05-05 11:16 51.56936 0.70218 51 ft 2 kts 131°
2026-05-05 11:16 51.56945 0.70205 48 ft 2 kts 160°
2026-05-05 11:16 51.56962 0.70199 51 ft 2 kts 181°
2026-05-05 11:17 51.56977 0.70201 49 ft 2 kts 189°
2026-05-05 11:17 51.56988 0.70205 54 ft 2 kts 192°
2026-05-05 11:17 51.56997 0.70208 54 ft 0 kts 193°
2026-05-05 11:21 51.56986 0.70201 53 ft 5 kts 204°
2026-05-05 11:22 51.56986 0.70153 50 ft 7 kts 294°
2026-05-05 11:22 51.57054 0.70060 53 ft 20 kts 323°
2026-05-05 11:22 51.57158 0.69939 54 ft 9 kts 326°
2026-05-05 11:22 51.57197 0.69897 53 ft 8 kts 326°
2026-05-05 11:23 51.57245 0.69829 56 ft 9 kts 291°
2026-05-05 11:23 51.57210 0.69710 50 ft 16 kts 233°
2026-05-05 11:23 51.57130 0.69539 51 ft 22 kts 232°
2026-05-05 11:23 51.57028 0.69321 56 ft 27 kts 234°
2026-05-05 11:24 51.56914 0.69063 51 ft 30 kts 234°
2026-05-05 11:24 51.56784 0.68772 52 ft 34 kts 235°
2026-05-05 11:24 51.56659 0.68487 53 ft 29 kts 234°
2026-05-05 11:24 51.56573 0.68304 51 ft 17 kts 226°
2026-05-05 11:25 51.56518 0.68209 50 ft 8 kts 280°
2026-05-05 11:25 51.56542 0.68219 51 ft 9 kts 52°
2026-05-05 11:25 51.56702 0.68570 50 ft 78 kts 54°
2026-05-05 11:25 51.57158 0.69579 57 ft 145 kts 53°
2026-05-05 11:26 51.57817 0.71020 459 ft 166 kts 53°
2026-05-05 11:26 51.58526 0.72612 1091 ft 182 kts 54°
2026-05-05 11:26 51.59300 0.74352 1688 ft 204 kts 54°
2026-05-05 11:26 51.60141 0.76331 2346 ft 225 kts 63°
2026-05-05 11:27 51.60511 0.77968 2582 ft 248 kts 80°
2026-05-05 11:27 51.60405 0.80815 2744 ft 262 kts 109°
2026-05-05 11:27 51.59004 0.83877 2880 ft 261 kts 147°
2026-05-05 11:27 51.57343 0.84875 2988 ft 262 kts 175°
2026-05-05 11:28 51.55526 0.84470 3026 ft 261 kts 204°
2026-05-05 11:28 51.54482 0.83470 3033 ft 259 kts 219°
2026-05-05 11:28 51.53113 0.81568 3033 ft 260 kts 222°
2026-05-05 11:28 51.51730 0.79687 3034 ft 260 kts 219°
2026-05-05 11:29 51.50268 0.77979 3033 ft 260 kts 214°
2026-05-05 11:29 51.48736 0.76410 3093 ft 262 kts 212°
2026-05-05 11:29 51.47156 0.74917 3540 ft 265 kts 210°
2026-05-05 11:29 51.45558 0.73458 4503 ft 264 kts 210°
2026-05-05 11:30 51.43951 0.72002 5386 ft 267 kts 210°
2026-05-05 11:30 51.42321 0.70530 6242 ft 271 kts 210°
2026-05-05 11:30 51.40673 0.69036 7090 ft 274 kts 210°
2026-05-05 11:30 51.38991 0.67507 7470 ft 278 kts 210°
2026-05-05 11:31 51.37293 0.66034 7675 ft 279 kts 201°
2026-05-05 11:31 51.35414 0.65526 7835 ft 280 kts 175°
2026-05-05 11:31 51.33535 0.66430 7969 ft 282 kts 149°
2026-05-05 11:31 51.32106 0.68561 8001 ft 284 kts 123°
2026-05-05 11:32 51.31298 0.71381 7999 ft 283 kts 109°
2026-05-05 11:32 51.30698 0.74380 7999 ft 283 kts 107°
2026-05-05 11:32 51.30105 0.77419 8000 ft 283 kts 108°
2026-05-05 11:32 51.29478 0.80411 8258 ft 286 kts 109°
2026-05-05 11:33 51.28806 0.83397 8741 ft 287 kts 109°
2026-05-05 11:33 51.28112 0.86387 9653 ft 287 kts 110°
2026-05-05 11:33 51.27403 0.89397 10351 ft 295 kts 110°
2026-05-05 11:33 51.26661 0.92530 10598 ft 317 kts 110°
2026-05-05 11:34 51.25854 0.95925 10863 ft 336 kts 110°
2026-05-05 11:34 51.25005 0.99492 11555 ft 341 kts 110°
2026-05-05 11:34 51.24171 1.02989 12339 ft 343 kts 110°
2026-05-05 11:34 51.23308 1.06604 13125 ft 345 kts 110°
2026-05-05 11:35 51.22447 1.10204 13857 ft 349 kts 110°
2026-05-05 11:35 51.21587 1.13795 14487 ft 353 kts 110°
2026-05-05 11:35 51.20709 1.17457 15145 ft 356 kts 110°
2026-05-05 11:35 51.19821 1.21155 15787 ft 359 kts 110°
2026-05-05 11:36 51.18924 1.24885 16416 ft 362 kts 111°
2026-05-05 11:36 51.18018 1.28644 17040 ft 366 kts 111°
2026-05-05 11:36 51.17096 1.32499 17357 ft 378 kts 109°
2026-05-05 11:36 51.16386 1.36566 17897 ft 383 kts 101°
2026-05-05 11:37 51.16018 1.40779 18468 ft 386 kts 94°
2026-05-05 11:37 51.15829 1.45052 19045 ft 387 kts 95°
2026-05-05 11:37 51.15629 1.49352 19567 ft 390 kts 95°
2026-05-05 11:37 51.15422 1.53670 20123 ft 392 kts 95°
2026-05-05 11:38 51.15210 1.58013 20657 ft 395 kts 96°
2026-05-05 11:38 51.14995 1.62386 21176 ft 397 kts 96°
2026-05-05 11:38 51.14778 1.66787 21654 ft 401 kts 96°
2026-05-05 11:38 51.14557 1.71229 22152 ft 404 kts 96°
2026-05-05 11:39 51.14333 1.75705 22636 ft 407 kts 96°
2026-05-05 11:39 51.14105 1.80219 22839 ft 410 kts 96°
2026-05-05 11:39 51.13875 1.84738 22940 ft 410 kts 96°
2026-05-05 11:39 51.13643 1.89263 22940 ft 410 kts 96°
2026-05-05 11:40 51.13408 1.93791 23421 ft 408 kts 96°
2026-05-05 11:40 51.13177 1.98244 24142 ft 403 kts 96°
2026-05-05 11:40 51.12943 2.02704 24535 ft 406 kts 96°
2026-05-05 11:40 51.12704 2.07205 24908 ft 409 kts 96°
2026-05-05 11:41 51.12462 2.11730 25305 ft 412 kts 97°
2026-05-05 11:41 51.12217 2.16287 25674 ft 415 kts 97°
2026-05-05 11:41 51.11969 2.20870 26052 ft 417 kts 97°
2026-05-05 11:41 51.11717 2.25490 26409 ft 420 kts 97°
2026-05-05 11:42 51.11462 2.30130 26776 ft 422 kts 97°
2026-05-05 11:42 51.11205 2.34799 27129 ft 425 kts 97°
2026-05-05 11:42 51.10943 2.39493 27451 ft 427 kts 97°
2026-05-05 11:42 51.10679 2.44214 27785 ft 430 kts 97°
2026-05-05 11:43 51.10410 2.48961 28114 ft 432 kts 97°
2026-05-05 11:43 51.10138 2.53735 28427 ft 434 kts 97°
2026-05-05 11:43 51.09867 2.58475 28737 ft 437 kts 97°
2026-05-05 11:43 51.09579 2.63295 29032 ft 438 kts 99°
2026-05-05 11:44 51.09056 2.68069 29309 ft 439 kts 105°
2026-05-05 11:44 51.08329 2.72796 29589 ft 441 kts 105°
2026-05-05 11:44 51.07609 2.77542 29877 ft 443 kts 105°
2026-05-05 11:44 51.06886 2.82328 30122 ft 446 kts 105°
2026-05-05 11:45 51.06149 2.87199 30366 ft 448 kts 105°
2026-05-05 11:45 51.05416 2.92029 30599 ft 450 kts 105°
2026-05-05 11:45 51.04687 2.96809 30845 ft 452 kts 105°
2026-05-05 11:45 51.03943 3.01673 31105 ft 454 kts 106°
2026-05-05 11:46 51.03196 3.06542 31420 ft 453 kts 106°
2026-05-05 11:46 51.02447 3.11403 31752 ft 453 kts 106°
2026-05-05 11:46 51.01698 3.16257 32080 ft 452 kts 107°
2026-05-05 11:46 51.00948 3.21099 32405 ft 451 kts 107°
2026-05-05 11:47 51.00196 3.25940 32721 ft 451 kts 107°
2026-05-05 11:47 50.99444 3.30761 33042 ft 450 kts 107°
2026-05-05 11:47 50.98683 3.35632 33362 ft 449 kts 108°
2026-05-05 11:47 50.97931 3.40431 33671 ft 448 kts 108°
2026-05-05 11:48 50.96435 3.49933 34179 ft 446 kts 108°
2026-05-05 11:48 50.95680 3.54704 34367 ft 447 kts 108°
2026-05-05 11:48 50.94921 3.59488 34553 ft 447 kts 108°
2026-05-05 11:49 50.94161 3.64263 34729 ft 447 kts 108°
2026-05-05 11:49 50.93397 3.69048 34911 ft 448 kts 108°
2026-05-05 11:49 50.92630 3.73835 35077 ft 448 kts 108°
2026-05-05 11:49 50.91862 3.78623 35244 ft 449 kts 108°
2026-05-05 11:50 50.91090 3.83415 35405 ft 449 kts 108°
2026-05-05 11:50 50.90317 3.88206 35566 ft 449 kts 108°
2026-05-05 11:50 50.89540 3.93004 35709 ft 450 kts 108°
2026-05-05 11:50 50.88761 3.97802 35867 ft 450 kts 108°
2026-05-05 11:51 50.87934 4.02581 36007 ft 449 kts 111°
2026-05-05 11:51 50.86888 4.07231 36156 ft 447 kts 115°
2026-05-05 11:51 50.85765 4.11823 36297 ft 448 kts 115°
2026-05-05 11:51 50.84652 4.16424 36431 ft 448 kts 115°
2026-05-05 11:52 50.83540 4.21029 36555 ft 448 kts 115°
2026-05-05 11:52 50.82424 4.25641 36693 ft 449 kts 115°
2026-05-05 11:52 50.81306 4.30244 36816 ft 449 kts 115°
2026-05-05 11:52 50.80183 4.34858 36900 ft 449 kts 115°
2026-05-05 11:53 50.77937 4.44057 36910 ft 448 kts 115°
2026-05-05 11:53 50.75685 4.53240 36908 ft 448 kts 115°
2026-05-05 11:54 50.73425 4.62411 36907 ft 448 kts 115°
2026-05-05 11:54 50.71159 4.71575 36905 ft 448 kts 115°
2026-05-05 11:55 50.68888 4.80719 36899 ft 448 kts 115°
2026-05-05 11:55 50.66610 4.89853 36892 ft 447 kts 116°
2026-05-05 11:56 50.64026 4.98711 36884 ft 444 kts 119°
2026-05-05 11:56 50.61384 5.07498 36883 ft 444 kts 119°
2026-05-05 11:57 50.58740 5.16271 36880 ft 443 kts 119°
2026-05-05 11:57 50.56097 5.25002 36879 ft 443 kts 120°
2026-05-05 11:58 50.53583 5.33269 36882 ft 443 kts 120°
2026-05-05 11:58 50.50933 5.41956 36886 ft 443 kts 120°
2026-05-05 11:59 50.48257 5.50696 36884 ft 443 kts 120°
2026-05-05 11:59 50.45582 5.59405 36878 ft 443 kts 120°
2026-05-05 12:00 50.42903 5.68093 36867 ft 442 kts 120°
2026-05-05 12:00 50.40218 5.76769 36858 ft 442 kts 120°
2026-05-05 12:01 50.37527 5.85434 36850 ft 443 kts 120°
2026-05-05 12:01 50.34831 5.94089 36847 ft 441 kts 120°
2026-05-05 12:02 50.32135 6.02709 36843 ft 441 kts 120°
2026-05-05 12:02 50.29433 6.11318 36835 ft 441 kts 120°
2026-05-05 12:03 50.26728 6.19909 36833 ft 441 kts 120°
2026-05-05 12:03 50.24013 6.28500 36831 ft 441 kts 121°
2026-05-05 12:04 50.21288 6.37093 36834 ft 442 kts 121°
2026-05-05 12:04 50.18324 6.45440 36836 ft 438 kts 128°
2026-05-05 12:05 50.14612 6.52888 36842 ft 434 kts 134°
2026-05-05 12:05 50.10715 6.60066 36843 ft 434 kts 134°
2026-05-05 12:06 50.06827 6.67251 36848 ft 434 kts 134°
2026-05-05 12:06 50.02948 6.74401 36841 ft 431 kts 134°
2026-05-05 12:07 49.99076 6.81514 36842 ft 431 kts 134°
2026-05-05 12:07 49.95201 6.88612 36840 ft 430 kts 134°
2026-05-05 12:08 49.91327 6.95689 36833 ft 430 kts 134°
2026-05-05 12:08 49.87445 7.02762 36858 ft 431 kts 134°
2026-05-05 12:09 49.83557 7.09827 36858 ft 431 kts 134°